Regional Weather Roundup
Issued by NWS Raleigh/Durham, NC

Home | Current Version | Previous Version | Text Only | Print | Product List | Glossary On
Versions: 1 2 3 4 5 6 7 8 9 10 11 12 13 14 15 16 17 18 19 20 21 22 23 24 25 26 27 28 29 30 31 32 33 34 35 36 37 38 39 40 41 42 43 44 45 46 47 48 49 50
000
ASUS42 KRAH 312210
RWRRAH
NORTH CAROLINA WEATHER ROUNDUP
NATIONAL WEATHER SERVICE RALEIGH NC
600 PM EDT TUE MAR 31 2015

NOTE: "FAIR" INDICATES FEW OR NO CLOUDS BELOW 12,000 FEET WITH NO
SIGNIFICANT WEATHER AND/OR OBSTRUCTIONS TO VISIBILITY.

NCZ001-053-055-056-065-067-312300-
WESTERN NORTH CAROLINA

CITY           SKY/WX    TMP DP  RH WIND       PRES   REMARKS
ASHEVILLE      MOSUNNY   72  35  25 NW15G22   29.87R
JEFFERSON      MOSUNNY   64  31  29 W15G33    29.81S
MORGANTON      SUNNY     76  31  19 W13G25    29.84R
HICKORY        SUNNY     77  29  17 W10G22    29.78S
RUTHERFORDTON  MOSUNNY   78  33  19 NW14G23   29.80S
MOUNT AIRY     MOSUNNY   75  29  18 W12G21    29.76S
BOONE          SUNNY     64  33  31 W22G33    29.84F
$$

NCZ021-022-025-041-071-084-088-312300-
CENTRAL NORTH CAROLINA

CITY           SKY/WX    TMP DP  RH WIND       PRES   REMARKS
CHARLOTTE      MOSUNNY   76  30  18 SW15G25   29.80F
GREENSBORO     MOSUNNY   73  29  19 W22G28    29.74F
WINSTON-SALEM  SUNNY     74  29  19 SW16G24   29.75F
RALEIGH-DURHAM MOSUNNY   73  34  23 SW18G29   29.75S
FORT BRAGG     SUNNY     74  32  21 SW17G25   29.77F
FAYETTEVILLE   SUNNY     75  32  20 SW20G28   29.79F
BURLINGTON     SUNNY     74  29  19 SW16G28   29.73F
LAURINBURG     SUNNY     76  29  17 W20G26    29.81F
$$

NCZ011-015-027-028-043-044-047-080-103-312300-
NORTHEASTERN NORTH CAROLINA

CITY           SKY/WX    TMP DP  RH WIND       PRES   REMARKS
ROCKY MT-WILSO SUNNY     72  36  26 SW15G30   29.75F
GREENVILLE     SUNNY     72  34  25 SW20G28   29.78F
WASHINGTON     SUNNY     71  34  25 SW18G30   29.76F
ELIZABETH CITY SUNNY     66  39  37 S14G23    29.73F
MANTEO         SUNNY     62  40  45 SW22G29   29.75F
CAPE HATTERAS  SUNNY     63  48  58 SW13G23   29.81F
$$

NCZ078-087-090-091-093-098-101-312300-
SOUTHEASTERN NORTH CAROLINA

CITY           SKY/WX    TMP DP  RH WIND       PRES   REMARKS
LUMBERTON      SUNNY     74  36  25 SW15G22   29.81F
GOLDSBORO      SUNNY     73  40  29 SW23      29.75F
KINSTON        SUNNY     73  34  23 SW18G24   29.78F
KENANSVILLE    SUNNY     73  31  21 SW10G21   29.80F
NEW BERN       SUNNY     68  34  28 S18G28    29.80F
CHERRY POINT   SUNNY     66  40  38 SW18G26   29.82F
BEAUFORT       SUNNY     62  50  64 S17       29.83F
JACKSONVILLE   SUNNY     66  41  40 SW16G23   29.81F
WILMINGTON     SUNNY     68  42  38 SW20      29.85F
$$




USA.gov is the U.S. government's official web portal to all federal, state and local government web resources and services.